STARLINK-31569 (59857 NORAD) Tracking and Keplerian Element Data

This shows tracking and keplerian element data for the satellite.

Feedback or suggestion? Click here.




ElementValue
Catalog59857
NameSTARLINK-31569
Epoch Orbit375
Epoch Day160.16667824
Epoch Year2024
RAAN318.5842
Inclination43.0009
Eccentricity0.0001789
Argument of Perigee285.8275
Mean Anonmoly97.1199
Mean Motion15.66634325
Decay Rate-0.01741342
L11 59857U 24097Y 24160.16667824 -.01741342 00000+0 -18396-1 0 9990
L22 59857 43.0009 318.5842 0001789 285.8275 97.1199 15.66634325 3757



Live tracking and technical data element details for STARLINK-31569 (NORAD 59857). STARLINK-31569 can be tracked NOW for your location showing map with azimuth and elevation plus other details from your city location.







IsCatalogInMostPopularTable: catalog: 59857, numindb: 6
Update: records affected: 1



GetName: 59857 STARLINK-31569

Hit Count: updated at: Tue, 16 Jul 2024 03:26:06 GMT